Hourly Data Report for October 20, 2014

All times are specified in Local Standard Time (LST). Add 1 hour to adjust for Daylight Saving Time where and when it is observed.

CAPE DORSET A
NUNAVUT

64°13'49.000" N
76°31'30.000" W
48.20 m
2400637
71366
YTE

Download Data

Hourly Data (October 2014)
Hourly Data Report for October 20, 2014
Temp Definition
°C
Dew Point Temp Definition
°C
Rel Hum Definition
%
Wind Dir Definition
10's deg

Wind Spd Definition
km/h
Visibility Definition
km
Stn Press Definition
kPa
Hmdx Definition


Wind Chill Definition


Weather Definition


TIME
00:00 Legend Double Dagger -3.9 -5.8 87 19 11 16.1 101.10   -8 LegendNANA
01:00 Legend Double Dagger -4.1 -5.7 89 24 13 16.1 101.08   -9 LegendNANA
02:00 Legend Double Dagger -4.2 -5.9 88 22 11 16.1 101.05   -9 LegendNANA
03:00 Legend Double Dagger -4.1 -6.0 87 18 9 16.1 101.05   -8 LegendNANA
04:00 Legend Double Dagger -3.7 -5.7 86 20 15 16.1 101.02   -9 LegendNANA
05:00 Legend Double Dagger -3.6 -5.3 88 22 18 16.1 100.97   -9 LegendNANA
06:00 Legend Double Dagger -3.3 -4.7 90 19 17 16.1 100.94   -9 LegendNANA
07:00 Legend Double Dagger -2.8 -4.8 86 20 21 16.1 100.88   -9 LegendNANA
08:00 Legend Double Dagger -2.7 -4.4 88 20 30 16.1 100.83   -10 LegendNANA
09:00 Legend Double Dagger -2.9 -4.8 87 17 24 16.1 100.80   -10 LegendNANA
10:00 Legend Double Dagger -1.7 -3.4 88 20 21 16.1 100.74   -8 Snow
11:00 Legend Double Dagger -1.4 -2.8 90 20 30 4.0 100.69   -8 Snow
12:00 Legend Double Dagger -1.2 -2.2 93 20 32 3.2 100.64   -8 Snow
13:00 Legend Double Dagger -0.9 -1.9 93 20 35 3.6 100.57   -8 Snow
14:00 Legend Double Dagger -0.7 -1.4 95 21 32 4.8 100.54   -8 Snow
15:00 Legend Double Dagger -0.6 -0.6 100 22 28 8.1 100.49   -7 Snow
16:00 Legend Double Dagger 0.0 LegendMM LegendMM 24 35 3.2 100.41   -7 Freezing Rain
17:00 Legend Double Dagger -0.6 LegendMM LegendMM 25 26 1.2 100.42   -7 LegendNANA
18:00 Legend Double Dagger -1.8 LegendMM LegendMM 26 22 16.1 100.45   -8 LegendNANA
19:00 Legend Double Dagger -1.6 -1.6 100 27 21 16.1 100.44   -7 Snow
20:00 Legend Double Dagger -2.7 -4.3 89 29 26 16.1 100.49   -10 LegendNANA
21:00 Legend Double Dagger -3.4 -5.1 88 27 22 16.1 100.48   -10 LegendNANA
22:00 Legend Double Dagger -3.3 -5.3 86 27 24 16.1 100.46   -10 LegendNANA
23:00 Legend Double Dagger -3.3 -4.3 93 27 22 14.5 100.43   -10 LegendNANA

Notes on Data Quality.

Legend

  • E = Estimated
  • M = Missing
  • NA = Not Available
  • ‡ = Partner data that is not subject to review by the National Climate Archives
Date modified: